This demonstration page uses our WeatherBlox Daily Observations layout. Learn more.

38.88101, -77.10428

Hourly Observations for March 11, 2018

Temp ( °F °C ) Dew Point ( °F °C ) Humidity (%) Winds ( mph kmh ) Pressure ( in mb ) Visibility ( mi km ) Precip ( " mm )
12:52 am 00:52 Mostly Cloudy 38 3.3 21 -6.1 51 51 NNE 9 15 30.1 1019 10 16.0934 0 0
1:52 am 01:52 Mostly Cloudy 37 2.8 21 -6.1 52 52 ENE 6 9 30.11 1020 10 16.0934 0 0
3:52 am 03:52 Mostly Cloudy 36 2.2 20 -6.7 52 52 NNE 6 9 30.12 1020 10 16.0934 0 0
4:52 am 04:52 Cloudy 36 2.2 20 -6.7 52 52 NNE 7 11 30.12 1020 10 16.0934 0 0
5:52 am 05:52 Mostly Cloudy 35 1.7 20 -6.7 54 54 ESE 5 7 30.14 1021 10 16.0934 0 0
6:52 am 06:52 Partly Cloudy 34 1.1 18 -7.8 52 52 NNW 3 6 30.15 1021 10 16.0934 0 0
7:52 am 07:52 Partly Cloudy 32 0 19 -7.2 59 59 NNW 7 11 30.16 1022 10 16.0934 0 0
8:52 am 08:52 Partly Cloudy 37 2.8 21 -6.1 52 52 NNW 8 13 30.16 1021 10 16.0934 0 0
9:52 am 09:52 Partly Cloudy 39 3.9 19 -7.2 45 45 NW 8 13 30.17 1022 10 16.0934 0 0
10:52 am 10:52 Partly Cloudy 41 5 19 -7.2 41 41 NNE 8 13 30.16 1021 10 16.0934 0 0
11:52 am 11:52 Mostly Cloudy 43 6.1 19 -7.2 38 38 ENE 6 9 30.16 1022 10 16.0934 0 0
12:52 pm 12:52 Mostly Cloudy 43 6.1 20 -6.7 40 40 ESE 5 7 30.15 1021 10 16.0934 0 0
1:52 pm 13:52 Mostly Cloudy 46 7.8 21 -6.1 37 37 E 5 7 30.1 1019 10 16.0934 0 0
2:52 pm 14:52 Mostly Cloudy 48 8.9 22 -5.6 36 36 E 6 9 30.08 1019 10 16.0934 0 0
3:52 pm 15:52 Mostly Cloudy 49 9.4 24 -4.4 38 38 VRB 5 7 30.06 1018 9 14.48406 0 0
4:52 pm 16:52 Mostly Cloudy 51 10.6 20 -6.7 29 29 NNE 8 13 30.06 1018 10 16.0934 0 0
5:52 pm 17:52 Partly Cloudy 50 10 21 -6.1 32 32 N 9 15 30.05 1018 10 16.0934 0 0
6:52 pm 18:52 Mostly Cloudy 48 8.9 21 -6.1 34 34 N 9 15 30.06 1018 10 16.0934 0 0
7:52 pm 19:52 Partly Cloudy 46 7.8 23 -5 40 40 NNE 5 7 30.07 1018 10 16.0934 0 0
8:52 pm 20:52 Partly Cloudy 42 5.6 26 -3.3 53 53 ESE 9 15 30.07 1018 10 16.0934 0 0
9:52 pm 21:52 Partly Cloudy 41 5 23 -5 49 49 E 5 7 30.07 1018 10 16.0934 0 0
10:52 pm 22:52 Cloudy 40 4.4 23 -5 51 51 Calm 30.08 1019 10 16.0934 0 0
11:52 pm 23:52 Cloudy 39 3.9 25 -3.9 57 57 ENE 6 9 30.07 1018 10 16.0934 0 0

Powered by AerisWeather